Weather History for Indian Springs, NV

Change the Weather History Date:

Friday, February 14, 2014

  Actual Average (KDRA) Record (KDRA)
Temperature  
Mean Temperature 54 °F -  
Max Temperature 72 °F 55 °F 70 °F (2014)
Min Temperature 37 °F 35 °F 26 °F (2009)
Degree Days  
Heating Degree Days 10    
Growing Degree Days 4 (Base 50)    
Moisture  
Dew Point 21 °F    
Average Humidity 31    
Maximum Humidity 45    
Minimum Humidity 14    
Precipitation  
Precipitation 0.00 in - - ()
Sea Level Pressure  
Sea Level Pressure 30.03 in    
Wind  
Wind Speed 2 mph (WSW)    
Max Wind Speed 6 mph    
Max Gust Speed -    
Visibility 10 miles    
Events      
Averages and records for this station are not official NWS values.
T = Trace of Precipitation, MM = Missing Value Source: NWS Daily Summary

Daily Weather History Graph

Daily Weather History Graph

Search for Another Location

Airport:

Trip Planner

Search our weather history database for the weather conditions in past years. The results will help you decide how hot, cold, wet, or windy it might be!

Date:

Astronomy

Feb. 14, 2014 Rise Set
Actual Time 6:31 AM PST 5:22 PM PST
Civil Twilight 6:05 AM PST 5:48 PM PST
Nautical Twilight 5:34 AM PST 6:19 PM PST
Astronomical Twilight 5:04 AM PST 6:49 PM PST
Moon 5:28 PM PST (2/14) 6:02 AM PST (2/14)
Length of Visible Light 11h 43m
Length of Day
10h 50m
Full, 100% of the Moon is Illuminated
Feb 14
Full
Feb 14
Full
Feb 22
Last Quarter
Mar 1
New
Mar 8
First Quarter

Hourly Weather History & Observations

Time (PST) Temp. Windchill Dew Point Humidity Pressure Visibility Wind Dir Wind Speed Gust Speed Precip Events Conditions
1:15 AM 42.8 °F - 17.6 °F 36% 30.00 in 10.0 mi Calm Calm - N/A   Clear
1:58 AM 44.1 °F - 18.9 °F 37% 30.01 in 10.0 mi WSW 1.2 mph - N/A   Clear
2:58 AM 41.9 °F - 19.0 °F 40% 30.01 in 10.0 mi ENE 2.3 mph - N/A   Clear
3:58 AM 41.4 °F - 19.8 °F 42% 30.02 in 10.0 mi Calm Calm - N/A   Clear
4:58 AM 39.6 °F - 18.9 °F 43% 30.03 in 10.0 mi Variable 1.2 mph - N/A   Clear
5:58 AM 39.2 °F 35.9 °F 19.4 °F 45% 30.04 in 10.0 mi NNW 4.6 mph - N/A   Clear
6:58 AM 37.4 °F 33.8 °F 17.8 °F 45% 30.06 in 10.0 mi SW 4.6 mph - N/A   Clear
7:58 AM 42.3 °F 39.4 °F 21.6 °F 44% 30.09 in 10.0 mi West 4.6 mph - N/A   Clear
8:58 AM 49.8 °F - 22.8 °F 35% 30.08 in 10.0 mi Calm Calm - N/A   Partly Cloudy
9:58 AM 55.6 °F - 22.3 °F 27% 30.09 in 10.0 mi Calm Calm - N/A   Clear
10:58 AM 61.0 °F - 22.8 °F 23% 30.08 in 10.0 mi NE 2.3 mph - N/A   Scattered Clouds
11:58 AM 63.1 °F - 23.0 °F 22% 30.06 in 10.0 mi WSW 2.3 mph - N/A   Scattered Clouds
12:58 PM 68.7 °F - 23.7 °F 18% 30.08 in 10.0 mi West 2.3 mph - N/A   Partly Cloudy
1:58 PM 71.4 °F - 21.6 °F 15% 30.00 in 10.0 mi Variable 3.5 mph - N/A   Partly Cloudy
2:58 PM 71.6 °F - 21.0 °F 15% 29.98 in 10.0 mi East 3.5 mph - N/A   Clear
3:58 PM 72.1 °F - 20.8 °F 14% 29.98 in 10.0 mi Calm Calm - N/A   Clear
4:58 PM 70.2 °F - 21.6 °F 16% 29.99 in 10.0 mi East 2.3 mph - N/A   Clear
5:58 PM 63.5 °F - 24.1 °F 22% 30.00 in 10.0 mi ESE 5.8 mph - N/A   Clear
6:58 PM 59.4 °F - 23.9 °F 26% 30.01 in 10.0 mi SE 5.8 mph - N/A   Clear
7:58 PM 54.1 °F - 23.9 °F 31% 30.01 in 10.0 mi Calm Calm - N/A   Clear
8:58 PM 52.5 °F - 23.7 °F 33% 30.01 in 10.0 mi West 2.3 mph - N/A   Clear
9:58 PM 45.7 °F - 21.7 °F 39% 30.02 in 10.0 mi Calm Calm - N/A   Clear
10:58 PM 46.4 °F - 23.2 °F 40% 30.00 in 10.0 mi WSW 1.2 mph - N/A   Clear
11:58 PM 43.9 °F - 21.2 °F 41% 30.00 in 10.0 mi Calm Calm - N/A   Clear